Вернуться в каталог

FENGYUN 1C DEB

АктивенPO
NORAD 30418·DEBRIS·🇨🇳 China

Запущен May 10, 1999 с Taiyuan Satellite Launch Center

Loading…

Ближайшие Пролёты (ближайшие 24 часа)

TLE

СвежийSource: Space-Track

Эпоха: Sep 14, 2026, 19:26 UTC

1 30418U 99025AEH 26257.81034100  .00003330  00000-0  33823-3 0  9991
2 30418  98.8514  93.6430 0102924 315.0655  56.0901 14.87802814 46937

Отслеживайте FENGYUN 1C DEB в реальном времени с AllMySat

Download on the App Store